Location: Chrome
(40.5765°N, 74.2163°W)
Time: 07:59:59
(UTC+00:00)

Daily predictions for brighter satellites

Satellite Brightness Start Highest point End
(mag) Time Altitude Azimuth Time Altitude Azimuth Time Altitude Azimuth
Cosmos 2237 Rocket 3.5 21:53:44 10° SSE 21:57:58 22° E 22:02:14 10° NE
Meteor 1-14 Rocket 4.4 21:53:23 10° N 21:59:21 88° W 22:05:09 10° S
Okean O Rocket 2.3 21:55:26 10° S 21:59:42 61° WSW 22:04:01 10° NNW
Cosmos 1331 Rocket 4.1 21:54:47 10° NNW 22:00:04 88° ENE 22:05:20 10° SSE
Cosmos 2322 Rocket 4.2 21:57:55 10° WSW 22:02:17 23° NW 22:06:42 10° N
Feng Yun 1-1 Rocket 4.3 21:57:40 10° SE 22:02:54 53° ENE 22:08:08 10° N
Cosmos 371 Rocket 3.6 22:00:10 10° NNW 22:05:04 76° WSW 22:09:56 10° SSE
Cosmos 1602 3.7 22:01:33 10° N 22:05:26 90° SSE 22:09:19 10° S
ISS -1.8 22:04:25 10° NNW 22:06:38 16° NNE 22:08:52 10° ENE
SL-16 R/B 4.5 22:04:01 10° W 22:07:54 19° NW 22:11:48 10° N
CZ-4B R/B 4.3 22:06:00 10° NNW 22:08:22 17° WNW 22:10:42 10° WSW
Cosmos 1110 Rocket 4.4 22:03:26 10° NNW 22:08:36 69° WSW 22:13:45 10° S
Cosmos 1844 3.7 22:03:16 10° NNW 22:08:59 88° ENE 22:14:36 10° SSE
Lacrosse 5 rocket 1.8 22:05:41 10° SSW 22:09:53 49° SE 22:13:51 10° NE
USA 215 4.3 22:04:49 10° NE 22:10:39 36° NNW 22:16:28 10° W
Cosmos 1500 4.1 22:07:31 10° NNE 22:10:44 26° ENE 22:13:55 10° SE
Okean-O 3.3 22:07:01 10° SE 22:10:56 32° ENE 22:14:52 10° N
Cosmos 1862 Rocket 4.2 22:07:40 10° SSE 22:11:33 33° E 22:15:29 10° NNE
H-2A R/B 2.8 22:08:19 10° SSE 22:11:54 49° ENE 22:15:29 10° N
CENTAUR R/B 3.4 22:04:39 10° NW 22:12:52 83° WSW 22:21:37 10° SSE
Helios 1A Rocket 4.5 22:09:46 10° S 22:13:39 41° W 22:17:34 10° NNW
Cosmos 1340 2.9 22:10:07 10° NNW 22:13:55 75° W 22:17:40 10° S
Cosmos 2219 Rocket 2.2 22:10:31 10° SSW 22:16:06 85° ESE 22:21:46 10° NNE
AQUARIUS 4.2 22:12:39 10° SSE 22:17:04 61° ENE 22:21:31 10° N
SL-4 R/B 2.4 22:16:37 10° WSW 22:20:12 50° NNW 22:23:47 12° NE
CORIOLIS 4.2 22:15:26 10° SSE 22:20:48 64° ENE 22:26:12 10° N
NOAA 12 4.3 22:17:57 10° SE 22:23:04 50° ENE 22:28:10 10° N
BREEZE-M DEB (TANK) 3.4 22:20:24 10° WNW 22:25:41 31° N 22:27:30 16° ENE
Cosmos 1844 Rocket 3.6 22:20:35 10° NNW 22:25:59 53° WSW 22:31:23 10° S
NOSS 0 Rocket 4.2 22:20:39 10° S 22:26:37 52° ESE 22:32:38 10° NE
Cosmos 1707 Rocket 4.1 22:23:15 10° SSW 22:27:39 64° W 22:32:06 10° N
Cosmos 1980 4.1 22:22:33 10° S 22:27:48 42° ESE 22:33:06 10° NE
YAOGAN 6 3.6 22:26:02 10° SE 22:28:52 23° ENE 22:31:44 10° NNE
Shenzhou-11 Module 1.8 22:26:08 10° W 22:28:52 66° NNW 22:30:30 21° ENE
Aureole 1 Rocket 4.3 22:28:46 10° ESE 22:29:23 11° ESE 22:29:23 11° ESE
STARLINK-46 3.1 22:28:14 10° WSW 22:30:55 52° NW 22:32:44 18° NE
Cosmos 1315 Rocket 4.3 22:28:12 10° SW 22:31:54 38° WNW 22:35:41 10° N
COBE Rocket 3.9 22:32:41 10° N 22:37:20 79° WNW 22:42:00 10° SSW
SL-8 R/B 3.8 22:32:47 10° WNW 22:37:38 81° SSW 22:42:27 10° SE
COSMOS 2428 3.1 22:32:50 10° SSW 22:38:28 65° WNW 22:44:08 10° NNE
Cosmos 1346 Rocket 4.3 22:35:20 10° NNW 22:39:03 39° W 22:42:46 10° SSW
BREEZE-M R/B 4.4 22:37:27 10° WNW 22:42:15 26° NNW 22:44:19 16° NNE
CSL-04 Rocket 4.3 22:37:56 10° SE 22:42:26 30° ENE 22:46:58 10° N
USA 267 3.9 22:37:12 10° SSE 22:43:38 60° SW 22:50:05 10° NW
Meteor 1-5 Rocket 4.1 22:38:54 10° N 22:44:30 89° E 22:49:53 10° S
Cosmos 1908 Rocket 4.1 22:45:01 10° N 22:49:05 35° ENE 22:53:05 10° SE
COSMO-SKYMED 1 2.7 22:45:41 10° NNE 22:49:57 53° E 22:54:11 10° S
FengYun 1-2 T 4.2 22:46:24 10° SSE 22:51:44 56° ENE 22:57:05 10° N
ATLAS 3B R/B 3.4 22:45:12 10° NW 22:51:48 58° WSW 22:58:34 10° SSE
Cosmos 1666 3.2 22:52:12 10° N 22:55:40 35° ENE 22:59:06 10° SE
Exosat Rocket 3.7 22:50:24 10° SSW 22:56:06 76° WNW 23:01:05 10° NNE
YAOGAN 1 3.1 22:53:15 10° SE 22:57:12 36° ENE 23:01:09 10° N
Nadezhda 4 Rocket 4.1 22:54:23 10° S 23:00:43 84° W 23:07:05 10° N
SMAP 4.5 22:56:57 10° SSW 23:01:19 40° W 23:05:44 10° NNW
RESURS DK-1 3.6 22:58:36 10° SW 23:02:28 39° WNW 23:06:10 11° N
ERBS 3.1 23:01:38 10° NW 23:04:53 51° SW 23:08:05 10° SSE
Cosmos 2251 Rocket 3.7 23:00:01 10° SSW 23:05:19 73° WNW 23:10:37 10° NNE
SeaSat 1 4.5 23:13:31 13° NNE 23:13:31 13° NNE 23:14:15 10° N
NOAA 11 4.5 23:07:03 10° SE 23:12:07 42° ENE 23:17:14 10° N
Cosmos 1733 Rocket 4.4 23:12:26 10° NNW 23:16:33 41° W 23:20:39 10° SSW
Cosmos 2278 Rocket 2.2 23:11:52 10° NNW 23:17:34 87° WSW 23:23:13 10° SSE
BREEZE-M DEB (TANK) 2.6 23:15:37 10° WNW 23:17:35 47° WSW 23:17:35 47° WSW
Cosmos 1812 4.4 23:14:36 10° SW 23:18:07 34° WNW 23:21:41 10° N
Okean 1-7 3.0 23:14:24 10° S 23:18:35 55° E 23:19:04 51° ENE
Atlas Centaur 2 4.3 23:15:46 10° WSW 23:22:49 34° SSW 23:29:49 12° SE
Cosmos 2026 Rocket 3.8 23:17:38 10° S 23:23:38 66° E 23:29:38 10° NNE
SL-16 R/B 2.4 23:22:50 10° S 23:28:13 46° ESE 23:28:36 45° E
Cosmos 292 Rocket 3.7 23:24:26 10° NNW 23:29:15 60° ENE 23:29:41 57° E
Envisat 4.1 23:25:34 10° S 23:30:25 46° W 23:35:19 10° NNW
Cosmos 2333 Rocket 4.1 23:25:49 10° WSW 23:30:31 26° NW 23:35:17 10° N
CZ-4 R/B 1.5 23:27:42 10° S 23:31:38 69° WSW 23:35:31 10° NNW
Cosmos 1536 3.9 23:30:06 10° NNW 23:33:56 44° W 23:37:44 10° SSW
Cosmos 614 Rocket 4.1 23:35:33 10° S 23:39:56 54° SE 23:39:56 54° SE
Cosmos 407 Rocket 3.7 23:36:35 10° S 23:40:55 53° SE 23:40:55 53° SE
Cosmos 2237 Rocket 2.9 23:36:04 10° SW 23:41:37 52° WNW 23:45:20 21° N
ISS -1.6 23:40:35 10° NW 23:41:52 21° NW 23:41:52 21° NW
Cosmos 1627 Rocket 4.5 23:38:56 10° S 23:45:03 79° W 23:51:12 10° N
OAO 2 Rocket 4.0 23:42:24 10° WSW 23:47:11 43° S 23:47:24 43° SSE
Lacrosse 5 rocket 3.0 23:45:39 10° W 23:49:13 25° NW 23:49:31 25° NNW
Cosmos 1703 Rocket 4.3 23:47:15 10° SSW 23:51:35 52° W 23:53:14 33° NNW
